| time (UTC) | temp F | wind direction | speed MPH | gust MPH | rain 1hr in | rain 24hr in | rain mn in | humidity % | barometer mb |
| 20260507113445 | 58 | 334 | 6.0 | 12.0 | 0.00 | 0.00 | 0.00 | 69 | 1015.3 |
| 20260507112435 | 57 | 355 | 6.0 | 11.0 | 0.00 | 0.00 | 0.00 | 69 | 1015.3 |
| 20260507111436 | 57 | 46 | 7.0 | 11.0 | 0.00 | 0.00 | 0.00 | 69 | 1015.4 |
| 20260507110436 | 57 | 331 | 7.0 | 12.0 | 0.00 | 0.00 | 0.00 | 68 | 1015.5 |
| 20260507105435 | 57 | 342 | 6.0 | 12.0 | 0.00 | 0.00 | 0.00 | 70 | 1015.5 |
| 20260507104435 | 56 | 19 | 7.0 | 12.0 | 0.00 | 0.00 | 0.00 | 70 | 1015.5 |
| 20260507103436 | 56 | 315 | 6.0 | 12.0 | 0.00 | 0.00 | 0.00 | 68 | 1015.5 |
| 20260507102436 | 56 | 346 | 7.0 | 11.0 | 0.00 | 0.00 | 0.00 | 69 | 1015.5 |
| 20260507101435 | 56 | 331 | 7.0 | 12.0 | 0.00 | 0.00 | 0.00 | 69 | 1015.5 |
| 20260507100435 | 56 | 303 | 6.0 | 11.0 | 0.00 | 0.00 | 0.00 | 69 | 1015.4 |
| 20260507095435 | 56 | 311 | 6.0 | 12.0 | 0.00 | 0.00 | 0.00 | 71 | 1015.3 |
| 20260507094435 | 56 | 0 | 5.0 | 9.0 | 0.00 | 0.00 | 0.00 | 70 | 1015.3 |
| 20260507093917 | 56 | 350 | 5.0 | 8.0 | 0.00 | 0.00 | 0.00 | 70 | 1015.2 |
| 20260507092440 | 56 | 340 | 5.0 | 10.0 | 0.00 | 0.00 | 0.00 | 69 | 1015.1 |
| 20260507091435 | 55 | 347 | 6.0 | 9.0 | 0.00 | 0.00 | 0.00 | 70 | 1015.0 |
| 20260507090440 | 56 | 339 | 5.0 | 9.0 | 0.00 | 0.00 | 0.00 | 69 | 1015.0 |
| 20260507085435 | 56 | 341 | 5.0 | 9.0 | 0.00 | 0.00 | 0.00 | 67 | 1014.9 |
| 20260507084435 | 55 | 51 | 6.0 | 10.0 | 0.00 | 0.00 | 0.00 | 66 | 1014.9 |
| 20260507083435 | 55 | 340 | 6.0 | 10.0 | 0.00 | 0.00 | 0.00 | 72 | 1014.9 |
| 20260507082911 | 56 | 334 | 4.0 | 10.0 | 0.00 | 0.00 | 0.00 | 70 | 1014.9 |
| 20260507081435 | 56 | 322 | 3.0 | 7.0 | 0.00 | 0.00 | 0.00 | 69 | 1014.9 |
| 20260507080435 | 56 | 56 | 3.0 | 7.0 | 0.00 | 0.00 | 0.00 | 69 | 1014.8 |
| 20260507075433 | 56 | 348 | 2.0 | 7.0 | 0.00 | 0.00 | 0.00 | 69 | 1014.7 |
| 20260507074908 | 55 | 60 | 3.0 | 7.0 | 0.00 | 0.00 | 0.00 | 72 | 1014.7 |
| 20260507073432 | 55 | 349 | 2.0 | 7.0 | 0.00 | 0.00 | 0.00 | 71 | 1014.7 |
| 20260507072438 | 55 | 67 | 2.0 | 8.0 | 0.00 | 0.00 | 0.00 | 73 | 1014.6 |
| 20260507071433 | 55 | 65 | 3.0 | 7.0 | 0.00 | 0.00 | 0.00 | 75 | 1014.6 |
| 20260507070433 | 55 | 45 | 2.0 | 4.0 | 0.00 | 0.00 | 0.00 | 76 | 1014.5 |
| 20260507065502 | 54 | 61 | 2.0 | 4.0 | 0.00 | 0.00 | 0.00 | 77 | 1014.5 |
| 20260507063433 | 52 | 0 | 2.0 | 6.0 | 0.00 | 0.00 | 0.00 | 81 | 1014.4 |
| 20260507062916 | 52 | 36 | 2.0 | 5.0 | 0.00 | 0.00 | 0.00 | 81 | 1014.4 |
| 20260507061433 | 52 | 46 | 2.0 | 6.0 | 0.00 | 0.00 | 0.00 | 82 | 1014.4 |
| 20260507060437 | 51 | 59 | 1.0 | 5.0 | 0.00 | 0.00 | 0.00 | 84 | 1014.3 |
| 20260507055433 | 51 | 53 | 2.0 | 5.0 | 0.00 | 0.00 | 0.00 | 85 | 1014.3 |
| 20260507054431 | 51 | 52 | 1.0 | 5.0 | 0.00 | 0.00 | 0.00 | 86 | 1014.2 |
| 20260507053435 | 50 | 65 | 2.0 | 5.0 | 0.00 | 0.00 | 0.00 | 87 | 1014.1 |
| 20260507052431 | 49 | 49 | 2.0 | 6.0 | 0.00 | 0.00 | 0.00 | 88 | 1014.1 |
| 20260507051912 | 49 | 51 | 1.0 | 4.0 | 0.00 | 0.00 | 0.00 | 88 | 1014.0 |
| 20260507050427 | 48 | 46 | 1.0 | 4.0 | 0.00 | 0.00 | 0.00 | 88 | 1013.9 |
| 20260507045426 | 48 | 44 | 1.0 | 4.0 | 0.00 | 0.00 | 0.00 | 87 | 1013.8 |
| 20260507044425 | 48 | 42 | 1.0 | 5.0 | 0.00 | 0.00 | 0.00 | 87 | 1013.6 |
| 20260507043430 | 48 | 57 | 1.0 | 3.0 | 0.00 | 0.00 | 0.00 | 87 | 1013.6 |
| 20260507042424 | 48 | 69 | 1.0 | 3.0 | 0.00 | 0.00 | 0.00 | 87 | 1013.5 |
| 20260507041424 | 48 | 69 | 1.0 | 6.0 | 0.00 | 0.00 | 0.00 | 87 | 1013.4 |
| 20260507040425 | 48 | 54 | 1.0 | 5.0 | 0.00 | 0.00 | 0.00 | 87 | 1013.4 |
| 20260507035422 | 49 | 51 | 1.0 | 3.0 | 0.00 | 0.00 | 0.00 | 86 | 1013.3 |
| 20260507034422 | 49 | 53 | 1.0 | 5.0 | 0.00 | 0.00 | 0.00 | 86 | 1013.3 |
| 20260507033422 | 49 | 40 | 1.0 | 5.0 | 0.00 | 0.00 | 0.00 | 86 | 1013.2 |
| 20260507032901 | 49 | 57 | 1.0 | 4.0 | 0.00 | 0.00 | 0.00 | 85 | 1013.0 |
| 20260507031423 | 49 | 13 | 1.0 | 4.0 | 0.00 | 0.00 | 0.00 | 85 | 1012.9 |
| 20260507030420 | 49 | 34 | 1.0 | 6.0 | 0.00 | 0.00 | 0.00 | 85 | 1012.8 |
| 20260507025421 | 49 | 32 | 1.0 | 3.0 | 0.00 | 0.00 | 0.00 | 84 | 1012.8 |
| 20260507024423 | 49 | 36 | 1.0 | 6.0 | 0.00 | 0.00 | 0.00 | 84 | 1012.9 |
| 20260507023418 | 50 | 29 | 1.0 | 4.0 | 0.00 | 0.00 | 0.00 | 83 | 1012.8 |
| 20260507022416 | 50 | 57 | 1.0 | 4.0 | 0.00 | 0.00 | 0.00 | 82 | 1012.8 |
| 20260507021426 | 50 | 57 | 1.0 | 5.0 | 0.00 | 0.00 | 0.00 | 81 | 1012.7 |
| 20260507020424 | 50 | 63 | 2.0 | 6.0 | 0.00 | 0.00 | 0.00 | 81 | 1012.6 |
| 20260507015415 | 50 | 336 | 2.0 | 7.0 | 0.00 | 0.00 | 0.00 | 80 | 1012.5 |
| 20260507014414 | 51 | 60 | 1.0 | 4.0 | 0.00 | 0.00 | 0.00 | 79 | 1012.5 |
| 20260507013438 | 51 | 80 | 1.0 | 5.0 | 0.00 | 0.00 | 0.00 | 78 | 1012.6 |
| 20260507011423 | 51 | 70 | 2.0 | 5.0 | 0.00 | 0.00 | 0.00 | 76 | 1012.5 |
| 20260507010418 | 52 | 51 | 2.0 | 9.0 | 0.00 | 0.00 | 0.00 | 76 | 1012.4 |
| 20260507005412 | 52 | 56 | 2.0 | 7.0 | 0.00 | 0.00 | 0.00 | 76 | 1012.4 |
| 20260507004417 | 52 | 51 | 2.0 | 9.0 | 0.00 | 0.00 | 0.00 | 75 | 1012.4 |
| 20260507003413 | 53 | 41 | 2.0 | 5.0 | 0.00 | 0.00 | 0.00 | 75 | 1012.4 |
| 20260507002858 | 53 | 55 | 3.0 | 8.0 | 0.00 | 0.00 | 0.00 | 74 | 1012.3 |
| 20260507001412 | 53 | 60 | 3.0 | 7.0 | 0.00 | 0.00 | 0.00 | 74 | 1012.4 |
| 20260507000410 | 53 | 41 | 2.0 | 8.0 | 0.00 | 0.00 | 0.00 | 73 | 1012.3 |
| 20260506235410 | 54 | 355 | 3.0 | 7.0 | 0.00 | 0.00 | 0.00 | 72 | 1012.1 |
| 20260506234410 | 54 | 49 | 3.0 | 8.0 | 0.00 | 0.00 | 0.00 | 72 | 1012.1 |
| 20260506233419 | 54 | 49 | 3.0 | 8.0 | 0.00 | 0.00 | 0.00 | 71 | 1012.0 |
| 20260506232415 | 54 | 5 | 3.0 | 8.0 | 0.00 | 0.00 | 0.00 | 71 | 1011.9 |
| 20260506231409 | 54 | 345 | 3.0 | 8.0 | 0.00 | 0.00 | 0.00 | 72 | 1011.9 |
| 20260506230410 | 54 | 355 | 4.0 | 9.0 | 0.00 | 0.00 | 0.00 | 72 | 1011.8 |
| 20260506225410 | 54 | 0 | 3.0 | 8.0 | 0.00 | 0.00 | 0.00 | 75 | 1011.8 |
| 20260506224410 | 54 | 50 | 3.0 | 9.0 | 0.00 | 0.00 | 0.00 | 76 | 1011.8 |
| 20260506223409 | 54 | 322 | 3.0 | 8.0 | 0.00 | 0.00 | 0.00 | 77 | 1011.8 |
| 20260506222410 | 54 | 5 | 2.0 | 9.0 | 0.00 | 0.00 | 0.00 | 77 | 1011.8 |
| 20260506221408 | 54 | 59 | 3.0 | 7.0 | 0.00 | 0.00 | 0.00 | 77 | 1011.7 |
| 20260506220407 | 54 | 350 | 2.0 | 7.0 | 0.00 | 0.00 | 0.00 | 77 | 1011.6 |
| 20260506215407 | 54 | 24 | 2.0 | 6.0 | 0.00 | 0.00 | 0.00 | 78 | 1011.5 |
| 20260506214411 | 54 | 57 | 1.0 | 5.0 | 0.00 | 0.00 | 0.00 | 78 | 1011.5 |
| 20260506213407 | 54 | 56 | 2.0 | 9.0 | 0.00 | 0.00 | 0.00 | 78 | 1011.5 |
| 20260506212408 | 54 | 38 | 2.0 | 7.0 | 0.00 | 0.00 | 0.00 | 78 | 1011.5 |
| 20260506211407 | 54 | 34 | 2.0 | 6.0 | 0.00 | 0.00 | 0.00 | 78 | 1011.4 |
| 20260506210407 | 54 | 348 | 2.0 | 6.0 | 0.00 | 0.00 | 0.00 | 78 | 1011.4 |
| 20260506205407 | 54 | 17 | 3.0 | 7.0 | 0.00 | 0.00 | 0.00 | 78 | 1011.4 |
| 20260506204846 | 54 | 5 | 3.0 | 7.0 | 0.00 | 0.00 | 0.00 | 78 | 1011.3 |
| 20260506203405 | 54 | 355 | 2.0 | 7.0 | 0.00 | 0.00 | 0.00 | 78 | 1011.2 |
| 20260506203322 | 54 | 0 | 2.0 | 8.0 | 0.00 | 0.00 | 0.00 | 78 | 1011.2 |
| 20260506201405 | 54 | 311 | 3.0 | 9.0 | 0.00 | 0.00 | 0.00 | 77 | 1011.1 |
| 20260506200405 | 54 | 350 | 3.0 | 7.0 | 0.00 | 0.00 | 0.00 | 77 | 1011.1 |
| 20260506195405 | 54 | 311 | 4.0 | 13.0 | 0.00 | 0.00 | 0.00 | 77 | 1011.0 |
| 20260506194404 | 55 | 331 | 4.0 | 8.0 | 0.00 | 0.00 | 0.00 | 77 | 1010.8 |
| 20260506193837 | 55 | 330 | 4.0 | 10.0 | 0.00 | 0.00 | 0.00 | 77 | 1010.8 |
| 20260506192839 | 55 | 320 | 4.0 | 10.0 | 0.00 | 0.00 | 0.00 | 77 | 1010.7 |
| 20260506192317 | 55 | 316 | 5.0 | 10.0 | 0.00 | 0.00 | 0.00 | 77 | 1010.7 |
| 20260506190404 | 55 | 333 | 5.0 | 11.0 | 0.00 | 0.00 | 0.00 | 77 | 1010.5 |
| 20260506185405 | 55 | 30 | 5.0 | 12.0 | 0.00 | 0.00 | 0.00 | 77 | 1010.5 |
| 20260506184405 | 55 | 335 | 5.0 | 11.0 | 0.00 | 0.00 | 0.00 | 78 | 1010.4 |
| 20260506183405 | 55 | 339 | 6.0 | 11.0 | 0.00 | 0.00 | 0.00 | 78 | 1010.3 |
| 20260506182404 | 55 | 306 | 7.0 | 14.0 | 0.00 | 0.00 | 0.00 | 77 | 1010.2 |
| 20260506181410 | 55 | 329 | 6.0 | 13.0 | 0.00 | 0.00 | 0.00 | 77 | 1010.1 |
| 20260506180404 | 56 | 302 | 6.0 | 12.0 | 0.00 | 0.00 | 0.00 | 78 | 1009.9 |
| 20260506175404 | 56 | 16 | 7.0 | 14.0 | 0.00 | 0.00 | 0.00 | 79 | 1009.8 |
| 20260506174414 | 56 | 342 | 8.0 | 16.0 | 0.00 | 0.00 | 0.00 | 79 | 1009.8 |
| 20260506173405 | 56 | 304 | 9.0 | 16.0 | 0.00 | 0.00 | 0.00 | 79 | 1009.7 |
| 20260506172410 | 56 | 320 | 8.0 | 14.0 | 0.00 | 0.00 | 0.00 | 78 | 1009.6 |
| 20260506171404 | 56 | 304 | 8.0 | 15.0 | 0.00 | 0.00 | 0.00 | 77 | 1009.5 |
| 20260506170415 | 56 | 335 | 9.0 | 18.0 | 0.00 | 0.00 | 0.00 | 77 | 1009.5 |
| 20260506165404 | 56 | 355 | 9.0 | 15.0 | 0.00 | 0.00 | 0.00 | 77 | 1009.5 |
| 20260506164405 | 56 | 327 | 10.0 | 17.0 | 0.00 | 0.00 | 0.00 | 77 | 1009.4 |
| 20260506163405 | 56 | 327 | 9.0 | 15.0 | 0.00 | 0.00 | 0.00 | 77 | 1009.4 |
| 20260506162404 | 56 | 0 | 8.0 | 16.0 | 0.00 | 0.00 | 0.00 | 78 | 1009.3 |
| 20260506161404 | 56 | 350 | 8.0 | 16.0 | 0.00 | 0.00 | 0.00 | 77 | 1009.3 |
| 20260506160404 | 56 | 355 | 9.0 | 18.0 | 0.00 | 0.00 | 0.00 | 79 | 1009.4 |
| 20260506155404 | 57 | 16 | 8.0 | 15.0 | 0.00 | 0.00 | 0.00 | 78 | 1009.4 |
| 20260506154404 | 57 | 315 | 9.0 | 16.0 | 0.00 | 0.00 | 0.00 | 78 | 1009.3 |
| 20260506153842 | 57 | 15 | 8.0 | 16.0 | 0.00 | 0.00 | 0.00 | 78 | 1009.4 |
| 20260506152404 | 56 | 309 | 9.0 | 16.0 | 0.00 | 0.00 | 0.00 | 79 | 1009.4 |
| 20260506151404 | 57 | 5 | 8.0 | 15.0 | 0.00 | 0.00 | 0.00 | 79 | 1009.4 |
| 20260506150414 | 56 | 324 | 8.0 | 15.0 | 0.00 | 0.00 | 0.00 | 79 | 1009.4 |
| 20260506145404 | 56 | 355 | 7.0 | 15.0 | 0.00 | 0.00 | 0.00 | 79 | 1009.5 |
| 20260506144840 | 56 | 298 | 8.0 | 14.0 | 0.00 | 0.00 | 0.00 | 80 | 1009.4 |
| 20260506143404 | 56 | 341 | 9.0 | 17.0 | 0.00 | 0.00 | 0.00 | 79 | 1009.4 |
| 20260506142404 | 56 | 327 | 9.0 | 16.0 | 0.00 | 0.00 | 0.00 | 79 | 1009.4 |
| 20260506141404 | 56 | 349 | 9.0 | 16.0 | 0.00 | 0.00 | 0.00 | 78 | 1009.4 |
| 20260506141316 | 57 | 323 | 8.0 | 17.0 | 0.00 | 0.00 | 0.00 | 78 | 1009.4 |
| 20260506135404 | 57 | 323 | 9.0 | 17.0 | 0.00 | 0.00 | 0.00 | 78 | 1009.5 |
| 20260506134404 | 57 | 355 | 8.0 | 15.0 | 0.00 | 0.00 | 0.00 | 78 | 1009.5 |
| 20260506134334 | 57 | 310 | 9.0 | 16.0 | 0.00 | 0.00 | 0.00 | 78 | 1009.5 |
| 20260506132404 | 57 | 340 | 9.0 | 16.0 | 0.00 | 0.00 | 0.00 | 77 | 1009.5 |
| 20260506131404 | 56 | 317 | 9.0 | 18.0 | 0.00 | 0.00 | 0.00 | 77 | 1009.4 |
| 20260506130404 | 57 | 351 | 10.0 | 15.0 | 0.00 | 0.00 | 0.00 | 76 | 1009.3 |
| 20260506125409 | 57 | 309 | 9.0 | 16.0 | 0.00 | 0.00 | 0.00 | 76 | 1009.1 |
| 20260506124403 | 57 | 311 | 10.0 | 18.0 | 0.00 | 0.00 | 0.00 | 76 | 1009.1 |
| 20260506123404 | 57 | 348 | 10.0 | 18.0 | 0.00 | 0.00 | 0.00 | 76 | 1009.1 |
| 20260506122404 | 57 | 319 | 10.0 | 18.0 | 0.00 | 0.00 | 0.00 | 75 | 1009.0 |
| 20260506121403 | 57 | 5 | 9.0 | 18.0 | 0.00 | 0.00 | 0.00 | 75 | 1009.0 |
| 20260506120404 | 57 | 329 | 8.0 | 18.0 | 0.00 | 0.00 | 0.00 | 75 | 1009.0 |
| 20260506115403 | 57 | 317 | 10.0 | 17.0 | 0.00 | 0.00 | 0.00 | 75 | 1008.9 |
| 20260506114404 | 57 | 329 | 8.0 | 16.0 | 0.00 | 0.00 | 0.00 | 75 | 1009.0 |